Location: Tel Aviv
(32.0670°N, 34.7670°E)
Time: 14:44:29
(UTC+03:00)

ISS - Pass Details

Date: 28 May 2025
Orbit: 415 x 417 km, 51.6° (Epoch: 15 June)

Event Time Altitude Azimuth Distance (km) Brightness Sun altitude
Rises 20:59:04 0° 316° (NW) 2,354 1.9 -15.0°
Reaches altitude 10° 21:01:10 10° 318° (NW) 1,488 0.4 -15.3°
Maximum altitude 21:04:31 77° 44° (NE) 428 -3.8 -15.9°
Enters shadow 21:05:32 41° 122° (ESE) 613 -3.4 -16.1°
